Regional Weather Roundup
Issued by NWS Cleveland, OH

Home | Current Version | Previous Version | Text Only | Print | Product List | Glossary Off
Versions: 1 2 3 4 5 6 7 8 9 10 11 12 13 14 15 16 17 18 19 20 21 22 23 24 25 26 27 28 29 30 31 32 33 34 35 36 37 38 39 40 41 42 43 44 45 46 47 48 49 50

000
ASUS41 KCLE 130400
RWRCLE
OHIO REGIONAL WEATHER ROUNDUP
NATIONAL WEATHER SERVICE WILMINGTON, OH
1100 PM EST FRI FEB 12 2016

NOTE: "FAIR" INDICATES FEW OR NO CLOUDS BELOW 12,000 FEET WITH NO
SIGNIFICANT WEATHER AND/OR OBSTRUCTIONS TO VISIBILITY.

OHZ001>008-015>018-024>027-034-035-043-044-130500-
   NORTHWEST OHIO

CITY           SKY/WX    TMP DP  RH WIND       PRES   REMARKS
DEFIANCE       FAIR      15   4  61 NW14      30.24R WCI   0
FINDLAY        FAIR      14   5  67 NW15      30.19R WCI  -1
TOLEDO EXPRESS LGT SNOW  12   8  84 N14G23    30.21R VSB 3/4 WCI  -3
TOLEDO EXEC    LGT SNOW  14   6  70 N17G25    30.21R WCI  -3
LIMA           MOCLDY    14   8  77 NW14      30.20R WCI  -1
$$

OHZ009>014-019>023-028>033-038-089-130500-
   NORTHEAST OHIO

CITY           SKY/WX    TMP DP  RH WIND       PRES   REMARKS
CLE-HOPKINS    FLURRIES  17   5  59 NW20G26   30.11R WCI   1
CLE-LAKEFRONT  LGT SNOW  19  12  74 NW26G35   30.08R WCI   1
CUY CO. ARPT   FLURRIES  19   9  63 NW18G31   30.06R WCI   4
LORAIN-ELYRIA  FLURRIES  17   6  62 N18G29    30.11R WCI   1
ASHTABULA      LGT SNOW  16  11  80 NW17G31   30.01R WCI   0
AKRON-CANTON   SNOW      15  11  83 NW10      30.04R VSB 1/2 WCI   2
WOOSTER        NOT AVBL
MANSFIELD      CLOUDY    14   6  70 NW15G26   30.10R WCI  -1
YOUNGSTOWN     FLURRIES  16   9  74 NW10      30.00R WCI   4
$$

OHZ042-051>053-060>062-070>072-077>081-130500-
  SOUTHWEST OHIO

CITY           SKY/WX    TMP DP  RH WIND       PRES   REMARKS
CINC-COVINGTON CLOUDY    20  11  68 NW21G29   30.26R WCI   4
CINC-LUNKEN    MOCLDY    22  13  68 NW10G20   30.30R WCI  11
HAMILTON       CLOUDY    20  12  71 NW13      30.29R WCI   7
DAYTON         NOT AVBL
WRIGHT-PAT AFB NOT AVBL
DAYTON GENERAL MOCLDY    18   4  54 NW15G23   30.23R WCI   4
WILMINGTON     CLOUDY    17   7  64 NW14      30.21R WCI   3
$$

OHZ036-037-039>041-045>050-054>059-063>069-073>076-082>088-130500-
  CENTRAL AND SOUTHEAST OHIO

CITY           SKY/WX    TMP DP  RH WIND       PRES   REMARKS
COLUMBUS       FAIR      16   5  62 NW14      30.18R WCI   2
OSU AIRPORT    FLURRIES  16   8  71 NW12G22   30.18R WCI   3
BOLTON FIELD   NOT AVBL
RICKENBACK AFB NOT AVBL
NEWARK         CLOUDY    18   7  62 NW16G29   30.16R WCI   3
MARION         FAIR      15   5  64 NW18G25   30.17R WCI  -2
LANCASTER      MOCLDY    17   7  64 NW12      30.18R WCI   4
ZANESVILLE     CLOUDY    19   7  59 NW14G22   30.13R WCI   6
NEW PHILLY     FAIR      16   6  65 W16G24    30.10R WCI   1
$$



USA.gov is the U.S. government's official web portal to all federal, state and local government web resources and services.